Simultaneous Nadir Overpasses (SNOs) Predictions

Prediction of SNOs between NOAA-19 and METOP-C Satellite Orbit:

Table of predicted SNOs for the next 14.0 days since TLE Epoch: 3/18/2023
Index Date (NOAA-19) Time (NOAA-19) Lat,Lon (NOAA-19) SZA (NOAA-19 ) Date (METOP-C) Time (METOP-C) Lat,Lon (METOP-C) SZA (METOP-C ) Distance(km) Time Diff (sec)
1 03/19/2023 06:05:08 80.93, 123.21 82.96 03/19/2023 06:06:15 80.93, 123.37 83.00 2.83 67
2 03/19/2023 06:56:03 -80.93, -69.24 97.03 03/19/2023 06:56:57 -80.92, -69.36 97.03 2.36 54
3 03/19/2023 07:47:06 80.93, 98.21 82.98 03/19/2023 07:47:36 80.94, 98.21 82.99 0.47 30
4 03/19/2023 08:38:02 -80.93, -94.61 97.05 03/19/2023 08:38:18 -80.93, -94.52 97.03 1.61 16
5 03/19/2023 09:29:05 80.93, 72.83 82.96 03/19/2023 09:28:58 80.93, 72.70 82.94 2.35 7
6 03/19/2023 10:20:01 -80.93,-119.99 97.07 03/19/2023 10:19:40 -80.92,-120.04 97.08 1.22 21
7 03/19/2023 11:11:04 80.93, 47.45 82.94 03/19/2023 11:10:19 80.94, 47.54 82.94 1.69 45
8 03/19/2023 12:02:00 -80.93,-145.36 97.08 03/19/2023 12:01:01 -80.93,-145.20 97.09 2.94 59
9 03/30/2023 15:45:09 80.93, -21.76 78.57 03/30/2023 15:46:12 80.93, -21.65 78.60 1.99 63
10 03/30/2023 16:36:07 -80.93, 145.70 101.43 03/30/2023 16:36:53 -80.94, 145.86 101.39 2.91 46
11 03/30/2023 17:27:07 80.93, -46.78 78.59 03/30/2023 17:27:33 80.93, -46.82 78.60 0.77 26
12 03/30/2023 18:18:06 -80.93, 120.31 101.44 03/30/2023 18:18:15 -80.93, 120.33 101.44 0.61 9
13 03/30/2023 19:09:06 80.93, -72.17 78.57 03/30/2023 19:08:55 80.93, -72.34 78.55 3.08 11
14 03/30/2023 20:00:04 -80.93, 95.30 101.43 03/30/2023 19:59:36 -80.93, 95.17 101.45 2.33 28
15 03/30/2023 20:51:05 80.93, -97.57 78.56 03/30/2023 20:50:16 80.93, -97.51 78.54 1.00 49



Historial Predications of SNOs between NOAA-19 and METOP-C
